Hourly Data Report for September 06, 2017

All times are specified in Local Standard Time (LST). Add 1 hour to adjust for Daylight Saving Time where and when it is observed.

EUREKA CLIMATE
NUNAVUT

79°59'21.000" N
85°56'02.000" W
10.00 m
2401199
71613
NEK

Download Data

Hourly Data (September 2017)
Hourly Data Report for September 6, 2017
Temp Definition
°C
Dew Point Temp Definition
°C
Rel Hum Definition
%
Wind Dir Definition
10's deg

Wind Spd Definition
km/h
Visibility Definition
km
Stn Press Definition
kPa
Hmdx Definition


Wind Chill Definition


Weather Definition


TIME
00:00 -6.2 -7.0 93 2 10   100.89   -11 LegendNANA
01:00 -6.1 -7.3 91 2 10   100.88   -11 LegendNANA
02:00 -5.9 -7.7 88 2 9   100.88   -10 LegendNANA
03:00 -6.1 -7.1 93 19 5   100.87   -9 LegendNANA
04:00 -6.4 -7.0 95 10 3   100.87   -8 LegendNANA
05:00 -7.1 -8.7 89 1 8   100.87   -11 LegendNANA
06:00 -7.1 -8.6 89 2 8   100.86   -11 LegendNANA
07:00 -7.0 -9.1 85 1 9   100.85   -11 LegendNANA
08:00 -7.1 -8.5 90 9 3   100.83   -9 LegendNANA
09:00 -7.1 -9.7 82 1 6   100.83   -10 LegendNANA
10:00 -6.4 -9.7 78 1 9   100.81   -11 LegendNANA
11:00 -5.8 -10.5 70 2 7   100.80   -9 LegendNANA
12:00 -5.4 -12.6 57 13 2   100.81   -6 LegendNANA
13:00 -6.3 -10.5 72 2 11   100.81   -11 LegendNANA
14:00 -6.7 -11.0 72 2 13   100.83   -12 LegendNANA
15:00 -7.3 -11.0 75 1 12   100.85   -13 LegendNANA
16:00 -6.9 -11.3 71 1 11   100.86   -12 LegendNANA
17:00 -7.3 -11.4 72 1 15   100.87   -13 LegendNANA
18:00 -7.6 -11.9 71 1 15   100.87   -14 LegendNANA
19:00 -7.1 -10.6 76 2 9   100.89   -11 LegendNANA
20:00 -6.6 -11.2 70 32 10   100.89   -11 LegendNANA
21:00 -6.3 -9.4 79 33 10   100.91   -11 LegendNANA
22:00 -8.0 -12.5 70 36 6   100.93   -11 LegendNANA
23:00 -6.5 -9.3 80 36 8   100.94   -10 LegendNANA

Notes on Data Quality.

Legend

  • E = Estimated
  • M = Missing
  • NA = Not Available
  • ‡ = Partner data that is not subject to review by the National Climate Archives
Date modified: